[[{"header":{"parameterUnit":"m.s-1","parameterCategory":1,"la1":30.2991,"la2":30.254,"lo1":-89.0895,"lo2":-89.0444,"dy":0.0017,"dx":0.0017,"nx":28,"ny":28,"refTime":"2025-12-05T03:00:00:Z","depth":0,"parameterNumber":2,"parameterNumberName":"U-component_of_WINDS"},"data":[0,0,0,0,0,0,0,0,0,0,0,0,0,0,0,0,0,0,0,0,0,0,0,0,0,0,0,0,0,0,0,0,0,0,0,0,0,0,0,0,0,0,0,0,0,0,0,0,0,0,0,0,0,0,0,0,0,0,-0.5954,-0.5955,0,-0.6038,-0.6039,-0.604,-0.6036,-0.6035,-0.6033,-0.6032,-0.6121,-0.6125,-0.6128,0,0,0,0,0,0,0,0,0,0,0,0,0,-0.5791,-0.5794,-0.5954,-0.5955,-0.5956,-0.6038,-0.6039,-0.604,-0.6036,-0.6035,-0.6033,-0.6032,-0.612,-0.6124,-0.6128,0,0,0,0,0,0,0,0,0,0,0,0,0,-0.5867,-0.5795,-0.5954,-0.5964,-0.5965,-0.6038,-0.6039,-0.6041,-0.6036,-0.6035,-0.6033,-0.6031,-0.6119,-0.6124,-0.6129,-0.6198,0,0,-0.6145,-0.6147,0,0,0,0,0,0,0,0,-0.5863,-0.5873,-0.5961,-0.5963,-0.5965,-0.6025,-0.6014,-0.6094,-0.6037,-0.6009,-0.6032,-0.603,-0.6091,-0.6098,-0.6118,-0.6202,-0.6206,-0.6146,-0.6149,-0.6151,-0.6153,0,0,0,0,0,0,0,-0.5858,-0.5869,-0.5987,-0.5962,-0.5965,-0.5964,-0.5973,-0.6029,-0.6059,-0.6012,-0.6012,-0.6021,-0.6092,-0.6113,-0.612,-0.6207,-0.6145,-0.615,-0.6153,-0.6155,-0.6352,-0.6354,0,0,0,0,0,0,-0.585,-0.5865,-0.5985,-0.599,-0.5908,-0.5969,-0.5979,-0.6007,-0.6059,-0.6065,-0.6023,-0.6021,-0.6105,-0.6114,-0.6123,-0.6207,-0.6151,-0.6156,-0.6159,-0.635,-0.6352,-0.6354,0,0,0,0,0,0,-0.5846,-0.586,-0.5981,-0.5927,-0.5943,-0.5974,-0.6006,-0.601,-0.6031,-0.6067,-0.6073,-0.6039,-0.6104,-0.6116,-0.6179,-0.621,-0.6158,-0.6163,-0.6347,-0.6351,-0.6353,-0.6376,0,0,0,0,0,0,-0.5842,-0.5859,-0.5885,-0.5928,-0.5946,-0.6035,-0.6008,-0.6013,-0.604,-0.6038,-0.6084,-0.609,-0.6103,-0.6171,-0.6184,-0.6217,-0.6167,-0.6345,-0.6349,-0.6352,-0.6373,-0.6379,-0.6385,0,0,0,0,0,-0.5836,-0.5889,-0.5887,-0.5901,-0.5979,-0.6037,-0.6047,-0.6061,-0.6043,-0.607,-0.6092,-0.6088,-0.6205,-0.6178,-0.6193,-0.6227,-0.6343,-0.6348,-0.6352,-0.637,-0.6378,-0.6385,0,0,0,0,0,0,-0.585,-0.5895,-0.5893,-0.5961,-0.5995,-0.6036,-0.607,-0.6069,-0.611,-0.6107,-0.6123,-0.6133,-0.6196,-0.6218,-0.6187,-0.6296,-0.6271,-0.6279,-0.628,-0.6288,-0.6294,-0.6288,-0.6172,0,0,0,0,0,-0.5861,-0.5904,-0.5941,-0.5998,-0.6015,-0.604,-0.6065,-0.6073,-0.6109,-0.6124,-0.6151,-0.6187,-0.6232,-0.6261,-0.6304,-0.6375,-0.6385,-0.6406,-0.6412,-0.6417,-0.6424,-0.6464,-0.6473,-0.637,-0.637,-0.637,0,0,-0.5885,-0.5914,-0.5941,-0.6001,-0.6029,-0.6073,-0.6052,-0.61,-0.6133,-0.6132,-0.6193,-0.6214,-0.6255,-0.6323,-0.6354,-0.6343,-0.6455,-0.6423,-0.6427,-0.6431,-0.6469,-0.6479,-0.6488,-0.6373,-0.6372,-0.6372,0,0,-0.5951,-0.5977,-0.6027,-0.6055,-0.6096,-0.6112,-0.6123,-0.6165,-0.6178,-0.624,-0.6239,-0.6279,-0.6356,-0.6385,-0.641,-0.6486,-0.6484,-0.6499,-0.6533,-0.6571,-0.6579,-0.6586,-0.6614,-0.6623,-0.6506,-0.6506,-0.6506,0,-0.5975,-0.6041,-0.6053,-0.6102,-0.6128,-0.6127,-0.6179,-0.6205,-0.6258,-0.6277,-0.6263,-0.6359,-0.6386,-0.6461,-0.6479,-0.6499,-0.6514,-0.6494,-0.6577,-0.6584,-0.6591,-0.6617,-0.6628,-0.6507,-0.6507,-0.6507,-0.6507,0,-0.6069,-0.6115,-0.6151,-0.6201,-0.6232,-0.6282,-0.6302,-0.6332,-0.6336,-0.6353,-0.6416,-0.6449,-0.6499,-0.6516,-0.6522,-0.6592,-0.6583,-0.6573,-0.6549,-0.6602,-0.6627,-0.6638,-0.651,-0.6509,-0.6509,-0.6508,0,0,-0.6148,-0.6203,-0.6216,-0.6239,-0.6284,-0.632,-0.6369,-0.6416,-0.6442,-0.6478,-0.6521,-0.6585,-0.6575,-0.6603,-0.6612,-0.6645,-0.6703,-0.6631,-0.6632,-0.6644,-0.6782,-0.679,-0.6802,-0.6702,-0.6704,-0.6705,-0.6779,0,-0.6219,-0.6305,-0.6317,-0.6394,-0.6437,-0.6436,-0.6479,-0.6511,-0.6529,-0.6568,-0.6588,-0.6633,-0.6617,-0.6634,-0.6667,-0.6689,-0.6731,-0.6684,-0.6742,-0.6744,-0.6732,-0.6815,-0.6824,-0.6892,-0.6789,-0.6791,-0.6792,0,-0.6313,-0.6351,-0.6432,-0.647,-0.6488,-0.6527,-0.6571,-0.6608,-0.6645,-0.6655,-0.6686,-0.669,-0.6742,-0.6715,-0.6787,-0.6754,-0.6778,-0.6793,-0.6796,-0.6803,-0.6772,-0.6824,-0.6914,-0.6924,-0.6807,-0.6806,-0.6805,0,-0.6362,-0.6434,-0.6491,-0.6511,-0.6557,-0.6584,-0.6604,-0.6639,-0.6667,-0.6705,-0.6723,-0.6768,-0.6793,-0.6827,-0.6844,-0.6822,-0.6914,-0.6888,-0.6925,-0.6925,-0.6945,-0.6944,-0.7041,-0.696,-0.696,-0.696,-0.6959,0,-0.6441,-0.649,-0.6514,-0.655,-0.6605,-0.6618,-0.6674,-0.6693,-0.6724,-0.6764,-0.6766,-0.6803,-0.6822,-0.6862,-0.6875,-0.6933,-0.6944,-0.6954,-0.6957,-0.6955,-0.6953,-0.6972,-0.6968,-0.6962,-0.6962,-0.6961,-0.6961,0,-0.6506,-0.6524,-0.6586,-0.6624,-0.6635,-0.6674,-0.6707,-0.6742,-0.6758,-0.6809,-0.6821,-0.6848,-0.6895,-0.6915,-0.6973,-0.6982,-0.7048,-0.7047,-0.7036,-0.7037,-0.7073,-0.7069,-0.7185,-0.7201,-0.7109,-0.711,-0.711,0,-0.6555,-0.6593,-0.6634,-0.666,-0.6682,-0.6724,-0.6752,-0.6766,-0.6795,-0.6839,-0.6868,-0.6916,-0.6954,-0.7031,-0.7056,-0.71,-0.7101,-0.7138,-0.7108,-0.7104,-0.7102,-0.71,-0.7104,-0.7144,-0.7145,-0.7146,-0.7147,0,-0.664,-0.6647,-0.6686,-0.6729,-0.6761,-0.6796,-0.6829,-0.6851,-0.687,-0.6903,-0.6951,-0.6981,-0.704,-0.7087,-0.7133,-0.7155,-0.7155,-0.7156,-0.7167,-0.7165,-0.7157,-0.7162,-0.7052,-0.7153,-0.7153,-0.7152,-0.7152,-0.7152,-0.6699,-0.6733,-0.6767,-0.6811,-0.6837,-0.6868,-0.6902,-0.6923,-0.6963,-0.7011,-0.7017,-0.7069,-0.7104,-0.7166,-0.719,-0.7231,-0.7221,-0.7237,-0.7241,-0.7245,-0.7248,-0.7149,-0.7239,-0.7239,-0.7239,-0.7239,-0.7239,0,-0.6785,-0.6806,-0.6846,-0.6892,-0.6927,-0.6922,-0.6959,-0.6988,-0.7033,-0.7066,-0.7103,-0.7159,-0.7204,-0.7232,-0.7278,-0.7305,-0.7306,-0.7317,-0.7316,-0.7321,-0.7253,-0.7239,-0.7315,-0.7315,-0.7315,-0.7315,-0.7315,-0.7315,-0.6833,-0.689,-0.6901,-0.697,-0.6992,-0.7042,-0.7063,-0.7092,-0.7118,-0.7179,-0.7216,-0.7234,-0.7265,-0.7313,-0.7354,-0.7361,-0.7379,-0.739,-0.7397,-0.7333,-0.7326,-0.7318,-0.7305,-0.7394,-0.7394,-0.7461,-0.7461,-0.7462]},{"header":{"parameterUnit":"m.s-1","parameterCategory":1,"la1":30.2991,"la2":30.254,"lo1":-89.0895,"lo2":-89.0444,"dy":0.0017,"dx":0.0017,"nx":28,"ny":28,"refTime":"2025-12-05T03:00:00:Z","depth":0,"parameterNumber":3,"parameterNumberName":"V-component_of_WINDS"},"data":[0,0,0,0,0,0,0,0,0,0,0,0,0,0,0,0,0,0,0,0,0,0,0,0,0,0,0,0,0,0,0,0,0,0,0,0,0,0,0,0,0,0,0,0,0,0,0,0,0,0,0,0,0,0,0,0,0,0,-1.1376,-1.1376,0,-1.1398,-1.1398,-1.1398,-1.1392,-1.1391,-1.1391,-1.139,-1.1412,-1.1413,-1.1414,0,0,0,0,0,0,0,0,0,0,0,0,0,-1.1327,-1.1328,-1.1376,-1.1376,-1.1377,-1.1398,-1.1398,-1.1399,-1.1392,-1.1391,-1.1391,-1.139,-1.1411,-1.1412,-1.1414,0,0,0,0,0,0,0,0,0,0,0,0,0,-1.1349,-1.1328,-1.1376,-1.1376,-1.1376,-1.1398,-1.1398,-1.1399,-1.1392,-1.1391,-1.1391,-1.139,-1.1411,-1.1412,-1.1414,-1.1437,0,0,-1.1418,-1.1419,0,0,0,0,0,0,0,0,-1.1347,-1.135,-1.1376,-1.1376,-1.1376,-1.1391,-1.1389,-1.1411,-1.1392,-1.1386,-1.139,-1.139,-1.1405,-1.1407,-1.1413,-1.1438,-1.1439,-1.1418,-1.1419,-1.142,-1.142,0,0,0,0,0,0,0,-1.1346,-1.1349,-1.1385,-1.1376,-1.1376,-1.1374,-1.1377,-1.1393,-1.1399,-1.1386,-1.1386,-1.1389,-1.1405,-1.1411,-1.1413,-1.1439,-1.1418,-1.142,-1.1421,-1.1421,-1.1483,-1.1484,0,0,0,0,0,0,-1.1344,-1.1348,-1.1384,-1.1385,-1.136,-1.1376,-1.1378,-1.1387,-1.1399,-1.14,-1.1389,-1.1388,-1.1409,-1.1412,-1.1414,-1.1442,-1.142,-1.1421,-1.1422,-1.1483,-1.1484,-1.1484,0,0,0,0,0,0,-1.1343,-1.1348,-1.1383,-1.1367,-1.1371,-1.1377,-1.1387,-1.1388,-1.1394,-1.1401,-1.1402,-1.1394,-1.1409,-1.1412,-1.1431,-1.1442,-1.1422,-1.1423,-1.1482,-1.1483,-1.1484,-1.1497,0,0,0,0,0,0,-1.1342,-1.1347,-1.1356,-1.1367,-1.1372,-1.14,-1.1388,-1.1389,-1.1397,-1.1396,-1.1406,-1.1407,-1.1408,-1.1429,-1.1433,-1.1444,-1.1425,-1.1481,-1.1482,-1.1484,-1.1495,-1.1498,-1.1501,0,0,0,0,0,-1.134,-1.1359,-1.1357,-1.1361,-1.1383,-1.1401,-1.1404,-1.1405,-1.1398,-1.1407,-1.1411,-1.1407,-1.144,-1.1431,-1.1435,-1.1447,-1.148,-1.1482,-1.1484,-1.1494,-1.1498,-1.1501,0,0,0,0,0,0,-1.1349,-1.136,-1.1358,-1.1381,-1.139,-1.14,-1.1411,-1.1409,-1.142,-1.1418,-1.1419,-1.1422,-1.1441,-1.1446,-1.1435,-1.147,-1.1459,-1.1462,-1.1466,-1.1469,-1.1472,-1.147,-1.1426,0,0,0,0,0,-1.1353,-1.1367,-1.1376,-1.1395,-1.14,-1.1405,-1.1412,-1.1413,-1.1422,-1.1426,-1.1432,-1.1441,-1.1453,-1.1462,-1.1473,-1.1496,-1.1498,-1.1506,-1.1509,-1.1511,-1.1513,-1.1526,-1.1529,-1.149,-1.149,-1.149,0,0,-1.1363,-1.1371,-1.1379,-1.1397,-1.1404,-1.1418,-1.1408,-1.1423,-1.1433,-1.1428,-1.1447,-1.1451,-1.1461,-1.1483,-1.1492,-1.1487,-1.1525,-1.1513,-1.1515,-1.1516,-1.1528,-1.1531,-1.1535,-1.1491,-1.1491,-1.1491,0,0,-1.1387,-1.1395,-1.1411,-1.1419,-1.143,-1.1433,-1.1437,-1.1448,-1.1451,-1.1469,-1.1466,-1.1478,-1.1499,-1.1507,-1.1513,-1.1541,-1.1537,-1.1544,-1.1558,-1.157,-1.1573,-1.1576,-1.1586,-1.1589,-1.1547,-1.1547,-1.1547,0,-1.1397,-1.1418,-1.142,-1.1436,-1.1443,-1.144,-1.1457,-1.1464,-1.1478,-1.1483,-1.1478,-1.1505,-1.1511,-1.1534,-1.1541,-1.1546,-1.1551,-1.1543,-1.1573,-1.1576,-1.1578,-1.1587,-1.1591,-1.1547,-1.1547,-1.1547,-1.1547,0,-1.143,-1.1445,-1.1457,-1.1472,-1.1481,-1.1497,-1.1501,-1.151,-1.1509,-1.1513,-1.1532,-1.154,-1.1553,-1.1559,-1.1558,-1.1581,-1.1578,-1.1573,-1.1562,-1.1583,-1.1591,-1.1595,-1.1549,-1.1548,-1.1548,-1.1548,0,0,-1.146,-1.1476,-1.148,-1.1487,-1.1499,-1.151,-1.1526,-1.154,-1.1548,-1.1558,-1.1571,-1.1589,-1.1584,-1.1592,-1.1592,-1.1603,-1.1624,-1.1596,-1.1596,-1.1601,-1.165,-1.1654,-1.1658,-1.1622,-1.1622,-1.1623,-1.1649,0,-1.1486,-1.1514,-1.1516,-1.1541,-1.1555,-1.1552,-1.1566,-1.1574,-1.1578,-1.159,-1.1594,-1.1607,-1.16,-1.1604,-1.1615,-1.1619,-1.1634,-1.1617,-1.1634,-1.1634,-1.1631,-1.1663,-1.1667,-1.1692,-1.1653,-1.1653,-1.1654,0,-1.1519,-1.1531,-1.1557,-1.1568,-1.1574,-1.1586,-1.1599,-1.161,-1.162,-1.1622,-1.1631,-1.163,-1.1645,-1.1634,-1.1656,-1.1645,-1.1652,-1.1655,-1.1656,-1.1658,-1.1645,-1.1665,-1.17,-1.1703,-1.1659,-1.1659,-1.1658,0,-1.1538,-1.156,-1.158,-1.1585,-1.1598,-1.1607,-1.1613,-1.1622,-1.163,-1.1641,-1.1646,-1.1659,-1.1666,-1.1675,-1.1677,-1.1669,-1.1699,-1.1688,-1.1701,-1.1701,-1.1708,-1.1707,-1.1744,-1.1712,-1.1712,-1.1712,-1.1712,0,-1.1566,-1.1583,-1.1588,-1.16,-1.1619,-1.1621,-1.1639,-1.1644,-1.1652,-1.1664,-1.1662,-1.1674,-1.1676,-1.1688,-1.169,-1.1708,-1.1711,-1.1713,-1.1713,-1.1713,-1.1713,-1.1717,-1.1716,-1.1713,-1.1713,-1.1713,-1.1712,0,-1.1591,-1.1595,-1.1616,-1.1627,-1.163,-1.1643,-1.1652,-1.1663,-1.1666,-1.1682,-1.1686,-1.1692,-1.1706,-1.1709,-1.1725,-1.1726,-1.1748,-1.1746,-1.1745,-1.1744,-1.1757,-1.1756,-1.1798,-1.1803,-1.1768,-1.1768,-1.1769,0,-1.1608,-1.1621,-1.1633,-1.1642,-1.1648,-1.1662,-1.167,-1.1672,-1.1681,-1.1694,-1.1703,-1.1717,-1.1728,-1.1751,-1.1756,-1.1769,-1.1768,-1.1782,-1.177,-1.1769,-1.1768,-1.1767,-1.1769,-1.1784,-1.1784,-1.1785,-1.1785,0,-1.1639,-1.1641,-1.1653,-1.1667,-1.1677,-1.1688,-1.1698,-1.1705,-1.1709,-1.1719,-1.1733,-1.1742,-1.1759,-1.1773,-1.1786,-1.1791,-1.1789,-1.1789,-1.1792,-1.1792,-1.1791,-1.1792,-1.1751,-1.1788,-1.1787,-1.1787,-1.1787,-1.1787,-1.1661,-1.1672,-1.1683,-1.1697,-1.1705,-1.1714,-1.1725,-1.1731,-1.1743,-1.1758,-1.1758,-1.1774,-1.1784,-1.1801,-1.1807,-1.1819,-1.1815,-1.182,-1.1821,-1.1823,-1.1824,-1.1789,-1.1821,-1.1821,-1.1821,-1.1821,-1.1821,0,-1.1691,-1.1698,-1.1711,-1.1726,-1.1737,-1.1734,-1.1745,-1.1754,-1.1769,-1.1778,-1.1789,-1.1806,-1.182,-1.1826,-1.184,-1.1848,-1.1847,-1.1851,-1.1851,-1.1852,-1.1827,-1.1823,-1.1852,-1.1852,-1.1852,-1.1852,-1.1852,-1.1852,-1.1709,-1.1728,-1.1731,-1.1754,-1.176,-1.1776,-1.1783,-1.1792,-1.1799,-1.1818,-1.183,-1.1834,-1.1842,-1.1856,-1.1868,-1.187,-1.1875,-1.188,-1.1881,-1.1857,-1.1854,-1.1851,-1.1847,-1.1881,-1.1881,-1.1905,-1.1905,-1.1905]}]]